Location: Seattle
(47.6064°N, 122.3308°W)
Time: 00:51:14
(UTC-08:00)

Envisat - Pass Details

Date: 29 October 2020
Orbit: 764 x 766 km, 98.1° (Epoch: 03 December)

Event Time Altitude Azimuth Distance (km) Brightness Sun altitude
Rises 18:22:27 0° 172° (S) 3,220 6.3 -5.2°
Reaches altitude 10° 18:24:46 10° 175° (S) 2,298 5.6 -5.6°
Maximum altitude 18:29:48 67° 258° (WSW) 830 3.5 -6.4°
Drops below altitude 10° 18:34:54 10° 341° (NNW) 2,315 5.6 -7.2°
Sets 18:37:14 0° 345° (NNW) 3,246 6.3 -7.6°
